Index of /20260424/WXO-DD/model_gdps/15km/12/162
Name Last modified Size Description
Parent Directory -
20260424T12Z_MSC_GDPS_AbsoluteVorticity_IsbL-0200_LatLon0.15_PT162H.grib2 2026-04-24 16:32 1.5M
20260424T12Z_MSC_GDPS_AbsoluteVorticity_IsbL-0250_LatLon0.15_PT162H.grib2 2026-04-24 16:32 1.3M
20260424T12Z_MSC_GDPS_AbsoluteVorticity_IsbL-0500_LatLon0.15_PT162H.grib2 2026-04-24 16:32 1.4M
20260424T12Z_MSC_GDPS_AbsoluteVorticity_IsbL-0700_LatLon0.15_PT162H.grib2 2026-04-24 16:32 1.3M
20260424T12Z_MSC_GDPS_AbsoluteVorticity_IsbL-0850_LatLon0.15_PT162H.grib2 2026-04-24 16:32 1.6M
20260424T12Z_MSC_GDPS_AirTemp-Max_AGL-2m_LatLon0.15_PT162H.grib2 2026-04-24 16:32 743K
20260424T12Z_MSC_GDPS_AirTemp-Min_AGL-2m_LatLon0.15_PT162H.grib2 2026-04-24 16:32 788K
20260424T12Z_MSC_GDPS_AirTemp_AGL-120m_LatLon0.15_PT162H.grib2 2026-04-24 16:32 904K
20260424T12Z_MSC_GDPS_AirTemp_AGL-2m_LatLon0.15_PT162H.grib2 2026-04-24 16:32 1.0M
20260424T12Z_MSC_GDPS_AirTemp_AGL-40m_LatLon0.15_PT162H.grib2 2026-04-24 16:32 807K
20260424T12Z_MSC_GDPS_AirTemp_AGL-80m_LatLon0.15_PT162H.grib2 2026-04-24 16:32 796K
20260424T12Z_MSC_GDPS_AirTemp_IsbL-0001_LatLon0.15_PT162H.grib2 2026-04-24 16:32 708K
20260424T12Z_MSC_GDPS_AirTemp_IsbL-0005_LatLon0.15_PT162H.grib2 2026-04-24 16:32 681K
20260424T12Z_MSC_GDPS_AirTemp_IsbL-0010_LatLon0.15_PT162H.grib2 2026-04-24 16:32 754K
20260424T12Z_MSC_GDPS_AirTemp_IsbL-0020_LatLon0.15_PT162H.grib2 2026-04-24 16:32 782K
20260424T12Z_MSC_GDPS_AirTemp_IsbL-0030_LatLon0.15_PT162H.grib2 2026-04-24 16:32 746K
20260424T12Z_MSC_GDPS_AirTemp_IsbL-0050_LatLon0.15_PT162H.grib2 2026-04-24 16:32 800K
20260424T12Z_MSC_GDPS_AirTemp_IsbL-0100_LatLon0.15_PT162H.grib2 2026-04-24 16:32 1.0M
20260424T12Z_MSC_GDPS_AirTemp_IsbL-0150_LatLon0.15_PT162H.grib2 2026-04-24 16:32 971K
20260424T12Z_MSC_GDPS_AirTemp_IsbL-0175_LatLon0.15_PT162H.grib2 2026-04-24 16:32 956K
20260424T12Z_MSC_GDPS_AirTemp_IsbL-0200_LatLon0.15_PT162H.grib2 2026-04-24 16:32 972K
20260424T12Z_MSC_GDPS_AirTemp_IsbL-0225_LatLon0.15_PT162H.grib2 2026-04-24 16:32 1.0M
20260424T12Z_MSC_GDPS_AirTemp_IsbL-0250_LatLon0.15_PT162H.grib2 2026-04-24 16:32 1.0M
20260424T12Z_MSC_GDPS_AirTemp_IsbL-0275_LatLon0.15_PT162H.grib2 2026-04-24 16:32 1.0M
20260424T12Z_MSC_GDPS_AirTemp_IsbL-0300_LatLon0.15_PT162H.grib2 2026-04-24 16:32 947K
20260424T12Z_MSC_GDPS_AirTemp_IsbL-0350_LatLon0.15_PT162H.grib2 2026-04-24 16:32 924K
20260424T12Z_MSC_GDPS_AirTemp_IsbL-0400_LatLon0.15_PT162H.grib2 2026-04-24 16:32 932K
20260424T12Z_MSC_GDPS_AirTemp_IsbL-0450_LatLon0.15_PT162H.grib2 2026-04-24 16:32 952K
20260424T12Z_MSC_GDPS_AirTemp_IsbL-0500_LatLon0.15_PT162H.grib2 2026-04-24 16:32 1.0M
20260424T12Z_MSC_GDPS_AirTemp_IsbL-0550_LatLon0.15_PT162H.grib2 2026-04-24 16:32 791K
20260424T12Z_MSC_GDPS_AirTemp_IsbL-0600_LatLon0.15_PT162H.grib2 2026-04-24 16:32 885K
20260424T12Z_MSC_GDPS_AirTemp_IsbL-0650_LatLon0.15_PT162H.grib2 2026-04-24 16:32 907K
20260424T12Z_MSC_GDPS_AirTemp_IsbL-0700_LatLon0.15_PT162H.grib2 2026-04-24 16:32 948K
20260424T12Z_MSC_GDPS_AirTemp_IsbL-0750_LatLon0.15_PT162H.grib2 2026-04-24 16:32 1.0M
20260424T12Z_MSC_GDPS_AirTemp_IsbL-0800_LatLon0.15_PT162H.grib2 2026-04-24 16:32 1.1M
20260424T12Z_MSC_GDPS_AirTemp_IsbL-0850_LatLon0.15_PT162H.grib2 2026-04-24 16:32 1.1M
20260424T12Z_MSC_GDPS_AirTemp_IsbL-0875_LatLon0.15_PT162H.grib2 2026-04-24 16:32 1.1M
20260424T12Z_MSC_GDPS_AirTemp_IsbL-0900_LatLon0.15_PT162H.grib2 2026-04-24 16:32 1.1M
20260424T12Z_MSC_GDPS_AirTemp_IsbL-0925_LatLon0.15_PT162H.grib2 2026-04-24 16:32 1.1M
20260424T12Z_MSC_GDPS_AirTemp_IsbL-0950_LatLon0.15_PT162H.grib2 2026-04-24 16:32 1.1M
20260424T12Z_MSC_GDPS_AirTemp_IsbL-0970_LatLon0.15_PT162H.grib2 2026-04-24 16:32 1.1M
20260424T12Z_MSC_GDPS_AirTemp_IsbL-0985_LatLon0.15_PT162H.grib2 2026-04-24 16:32 1.1M
20260424T12Z_MSC_GDPS_AirTemp_IsbL-1000_LatLon0.15_PT162H.grib2 2026-04-24 16:32 1.1M
20260424T12Z_MSC_GDPS_AirTemp_IsbL-1015_LatLon0.15_PT162H.grib2 2026-04-24 16:32 1.1M
20260424T12Z_MSC_GDPS_Albedo_Sfc_LatLon0.15_PT162H.grib2 2026-04-24 16:32 244K
20260424T12Z_MSC_GDPS_CAPE_Sfc_LatLon0.15_PT162H.grib2 2026-04-24 16:32 3.9M
20260424T12Z_MSC_GDPS_CIN_Sfc_LatLon0.15_PT162H.grib2 2026-04-24 16:32 2.9M
20260424T12Z_MSC_GDPS_CloudWater_EAtm_LatLon0.15_PT162H.grib2 2026-04-24 16:32 532K
20260424T12Z_MSC_GDPS_ConvectivePrecip-Accum_Sfc_LatLon0.15_PT162H.grib2 2026-04-24 16:32 3.8M
20260424T12Z_MSC_GDPS_DewPointDepression_AGL-2m_LatLon0.15_PT162H.grib2 2026-04-24 16:32 761K
20260424T12Z_MSC_GDPS_DewPointDepression_IsbL-0010_LatLon0.15_PT162H.grib2 2026-04-24 16:32 69K
20260424T12Z_MSC_GDPS_DewPointDepression_IsbL-0020_LatLon0.15_PT162H.grib2 2026-04-24 16:32 58K
20260424T12Z_MSC_GDPS_DewPointDepression_IsbL-0030_LatLon0.15_PT162H.grib2 2026-04-24 16:32 75K
20260424T12Z_MSC_GDPS_DewPointDepression_IsbL-0050_LatLon0.15_PT162H.grib2 2026-04-24 16:32 367K
20260424T12Z_MSC_GDPS_DewPointDepression_IsbL-0100_LatLon0.15_PT162H.grib2 2026-04-24 16:32 398K
20260424T12Z_MSC_GDPS_DewPointDepression_IsbL-0150_LatLon0.15_PT162H.grib2 2026-04-24 16:32 451K
20260424T12Z_MSC_GDPS_DewPointDepression_IsbL-0175_LatLon0.15_PT162H.grib2 2026-04-24 16:32 556K
20260424T12Z_MSC_GDPS_DewPointDepression_IsbL-0200_LatLon0.15_PT162H.grib2 2026-04-24 16:32 676K
20260424T12Z_MSC_GDPS_DewPointDepression_IsbL-0225_LatLon0.15_PT162H.grib2 2026-04-24 16:32 787K
20260424T12Z_MSC_GDPS_DewPointDepression_IsbL-0250_LatLon0.15_PT162H.grib2 2026-04-24 16:32 862K
20260424T12Z_MSC_GDPS_DewPointDepression_IsbL-0275_LatLon0.15_PT162H.grib2 2026-04-24 16:32 863K
20260424T12Z_MSC_GDPS_DewPointDepression_IsbL-0300_LatLon0.15_PT162H.grib2 2026-04-24 16:32 894K
20260424T12Z_MSC_GDPS_DewPointDepression_IsbL-0350_LatLon0.15_PT162H.grib2 2026-04-24 16:32 917K
20260424T12Z_MSC_GDPS_DewPointDepression_IsbL-0400_LatLon0.15_PT162H.grib2 2026-04-24 16:32 950K
20260424T12Z_MSC_GDPS_DewPointDepression_IsbL-0450_LatLon0.15_PT162H.grib2 2026-04-24 16:32 970K
20260424T12Z_MSC_GDPS_DewPointDepression_IsbL-0500_LatLon0.15_PT162H.grib2 2026-04-24 16:32 1.0M
20260424T12Z_MSC_GDPS_DewPointDepression_IsbL-0550_LatLon0.15_PT162H.grib2 2026-04-24 16:32 1.0M
20260424T12Z_MSC_GDPS_DewPointDepression_IsbL-0600_LatLon0.15_PT162H.grib2 2026-04-24 16:32 1.0M
20260424T12Z_MSC_GDPS_DewPointDepression_IsbL-0650_LatLon0.15_PT162H.grib2 2026-04-24 16:32 1.0M
20260424T12Z_MSC_GDPS_DewPointDepression_IsbL-0700_LatLon0.15_PT162H.grib2 2026-04-24 16:32 1.1M
20260424T12Z_MSC_GDPS_DewPointDepression_IsbL-0750_LatLon0.15_PT162H.grib2 2026-04-24 16:32 1.1M
20260424T12Z_MSC_GDPS_DewPointDepression_IsbL-0800_LatLon0.15_PT162H.grib2 2026-04-24 16:32 1.2M
20260424T12Z_MSC_GDPS_DewPointDepression_IsbL-0850_LatLon0.15_PT162H.grib2 2026-04-24 16:32 1.2M
20260424T12Z_MSC_GDPS_DewPointDepression_IsbL-0875_LatLon0.15_PT162H.grib2 2026-04-24 16:32 1.1M
20260424T12Z_MSC_GDPS_DewPointDepression_IsbL-0900_LatLon0.15_PT162H.grib2 2026-04-24 16:32 1.1M
20260424T12Z_MSC_GDPS_DewPointDepression_IsbL-0925_LatLon0.15_PT162H.grib2 2026-04-24 16:32 1.0M
20260424T12Z_MSC_GDPS_DewPointDepression_IsbL-0950_LatLon0.15_PT162H.grib2 2026-04-24 16:32 1.0M
20260424T12Z_MSC_GDPS_DewPointDepression_IsbL-0970_LatLon0.15_PT162H.grib2 2026-04-24 16:32 1.0M
20260424T12Z_MSC_GDPS_DewPointDepression_IsbL-0985_LatLon0.15_PT162H.grib2 2026-04-24 16:32 1.0M
20260424T12Z_MSC_GDPS_DewPointDepression_IsbL-1000_LatLon0.15_PT162H.grib2 2026-04-24 16:32 1.0M
20260424T12Z_MSC_GDPS_DewPointDepression_IsbL-1015_LatLon0.15_PT162H.grib2 2026-04-24 16:32 911K
20260424T12Z_MSC_GDPS_DewPoint_AGL-2m_LatLon0.15_PT162H.grib2 2026-04-24 16:32 603K
20260424T12Z_MSC_GDPS_DownwardLongwaveRadiationFlux-Accum_Sfc_LatLon0.15_PT162H.grib2 2026-04-24 16:32 629K
20260424T12Z_MSC_GDPS_DownwardShortwaveRadiationFlux-Accum_NTAtm_LatLon0.15_PT162H.grib2 2026-04-24 16:32 226K
20260424T12Z_MSC_GDPS_DownwardShortwaveRadiationFlux-Accum_Sfc_LatLon0.15_PT162H.grib2 2026-04-24 16:32 828K
20260424T12Z_MSC_GDPS_FreezingRain-Accum12h_Sfc_LatLon0.15_PT162H.grib2 2026-04-24 16:32 107K
20260424T12Z_MSC_GDPS_FreezingRain-Accum24h_Sfc_LatLon0.15_PT162H.grib2 2026-04-24 16:32 171K
20260424T12Z_MSC_GDPS_FreezingRain-Accum3h_Sfc_LatLon0.15_PT162H.grib2 2026-04-24 16:32 45K
20260424T12Z_MSC_GDPS_FreezingRain-Accum6h_Sfc_LatLon0.15_PT162H.grib2 2026-04-24 16:32 69K
20260424T12Z_MSC_GDPS_FreezingRain-Accum_Sfc_LatLon0.15_PT162H.grib2 2026-04-24 16:32 523K
20260424T12Z_MSC_GDPS_GeopotentialHeight_IsbL-0001_LatLon0.15_PT162H.grib2 2026-04-24 16:32 371K
20260424T12Z_MSC_GDPS_GeopotentialHeight_IsbL-0005_LatLon0.15_PT162H.grib2 2026-04-24 16:32 478K
20260424T12Z_MSC_GDPS_GeopotentialHeight_IsbL-0010_LatLon0.15_PT162H.grib2 2026-04-24 16:32 467K
20260424T12Z_MSC_GDPS_GeopotentialHeight_IsbL-0020_LatLon0.15_PT162H.grib2 2026-04-24 16:32 404K
20260424T12Z_MSC_GDPS_GeopotentialHeight_IsbL-0030_LatLon0.15_PT162H.grib2 2026-04-24 16:32 564K
20260424T12Z_MSC_GDPS_GeopotentialHeight_IsbL-0050_LatLon0.15_PT162H.grib2 2026-04-24 16:32 562K
20260424T12Z_MSC_GDPS_GeopotentialHeight_IsbL-0100_LatLon0.15_PT162H.grib2 2026-04-24 16:32 606K
20260424T12Z_MSC_GDPS_GeopotentialHeight_IsbL-0150_LatLon0.15_PT162H.grib2 2026-04-24 16:32 470K
20260424T12Z_MSC_GDPS_GeopotentialHeight_IsbL-0175_LatLon0.15_PT162H.grib2 2026-04-24 16:32 475K
20260424T12Z_MSC_GDPS_GeopotentialHeight_IsbL-0200_LatLon0.15_PT162H.grib2 2026-04-24 16:32 478K
20260424T12Z_MSC_GDPS_GeopotentialHeight_IsbL-0225_LatLon0.15_PT162H.grib2 2026-04-24 16:32 480K
20260424T12Z_MSC_GDPS_GeopotentialHeight_IsbL-0250_LatLon0.15_PT162H.grib2 2026-04-24 16:32 639K
20260424T12Z_MSC_GDPS_GeopotentialHeight_IsbL-0275_LatLon0.15_PT162H.grib2 2026-04-24 16:32 640K
20260424T12Z_MSC_GDPS_GeopotentialHeight_IsbL-0300_LatLon0.15_PT162H.grib2 2026-04-24 16:32 637K
20260424T12Z_MSC_GDPS_GeopotentialHeight_IsbL-0350_LatLon0.15_PT162H.grib2 2026-04-24 16:32 628K
20260424T12Z_MSC_GDPS_GeopotentialHeight_IsbL-0400_LatLon0.15_PT162H.grib2 2026-04-24 16:32 622K
20260424T12Z_MSC_GDPS_GeopotentialHeight_IsbL-0450_LatLon0.15_PT162H.grib2 2026-04-24 16:32 612K
20260424T12Z_MSC_GDPS_GeopotentialHeight_IsbL-0500_LatLon0.15_PT162H.grib2 2026-04-24 16:32 602K
20260424T12Z_MSC_GDPS_GeopotentialHeight_IsbL-0550_LatLon0.15_PT162H.grib2 2026-04-24 16:32 526K
20260424T12Z_MSC_GDPS_GeopotentialHeight_IsbL-0600_LatLon0.15_PT162H.grib2 2026-04-24 16:32 520K
20260424T12Z_MSC_GDPS_GeopotentialHeight_IsbL-0650_LatLon0.15_PT162H.grib2 2026-04-24 16:32 685K
20260424T12Z_MSC_GDPS_GeopotentialHeight_IsbL-0700_LatLon0.15_PT162H.grib2 2026-04-24 16:32 681K
20260424T12Z_MSC_GDPS_GeopotentialHeight_IsbL-0750_LatLon0.15_PT162H.grib2 2026-04-24 16:32 689K
20260424T12Z_MSC_GDPS_GeopotentialHeight_IsbL-0800_LatLon0.15_PT162H.grib2 2026-04-24 16:32 699K
20260424T12Z_MSC_GDPS_GeopotentialHeight_IsbL-0850_LatLon0.15_PT162H.grib2 2026-04-24 16:32 707K
20260424T12Z_MSC_GDPS_GeopotentialHeight_IsbL-0875_LatLon0.15_PT162H.grib2 2026-04-24 16:32 713K
20260424T12Z_MSC_GDPS_GeopotentialHeight_IsbL-0900_LatLon0.15_PT162H.grib2 2026-04-24 16:32 721K
20260424T12Z_MSC_GDPS_GeopotentialHeight_IsbL-0925_LatLon0.15_PT162H.grib2 2026-04-24 16:32 732K
20260424T12Z_MSC_GDPS_GeopotentialHeight_IsbL-0950_LatLon0.15_PT162H.grib2 2026-04-24 16:32 738K
20260424T12Z_MSC_GDPS_GeopotentialHeight_IsbL-0970_LatLon0.15_PT162H.grib2 2026-04-24 16:32 750K
20260424T12Z_MSC_GDPS_GeopotentialHeight_IsbL-0985_LatLon0.15_PT162H.grib2 2026-04-24 16:32 766K
20260424T12Z_MSC_GDPS_GeopotentialHeight_IsbL-1000_LatLon0.15_PT162H.grib2 2026-04-24 16:32 787K
20260424T12Z_MSC_GDPS_GeopotentialHeight_IsbL-1015_LatLon0.15_PT162H.grib2 2026-04-24 16:32 810K
20260424T12Z_MSC_GDPS_Humidex_Sfc_LatLon0.15_PT162H.grib2 2026-04-24 16:32 5.3M
20260424T12Z_MSC_GDPS_IcePellets-Accum12h_Sfc_LatLon0.15_PT162H.grib2 2026-04-24 16:32 23K
20260424T12Z_MSC_GDPS_IcePellets-Accum24h_Sfc_LatLon0.15_PT162H.grib2 2026-04-24 16:32 30K
20260424T12Z_MSC_GDPS_IcePellets-Accum3h_Sfc_LatLon0.15_PT162H.grib2 2026-04-24 16:32 14K
20260424T12Z_MSC_GDPS_IcePellets-Accum6h_Sfc_LatLon0.15_PT162H.grib2 2026-04-24 16:32 18K
20260424T12Z_MSC_GDPS_IcePellets-Accum_Sfc_LatLon0.15_PT162H.grib2 2026-04-24 16:32 179K
20260424T12Z_MSC_GDPS_KIndex_Sfc_LatLon0.15_PT162H.grib2 2026-04-24 16:32 6.5M
20260424T12Z_MSC_GDPS_LatentHeatNetFlux_Sfc_LatLon0.15_PT162H.grib2 2026-04-24 16:32 541K
20260424T12Z_MSC_GDPS_LiftedIndex-MU-VT_IsbL-0500_LatLon0.15_PT162H.grib2 2026-04-24 16:32 5.4M
20260424T12Z_MSC_GDPS_NetLongwaveRadiationFlux-Accum_Sfc_LatLon0.15_PT162H.grib2 2026-04-24 16:32 1.1M
20260424T12Z_MSC_GDPS_NetShortwaveRadiationFlux-Accum_Sfc_LatLon0.15_PT162H.grib2 2026-04-24 16:32 1.1M
20260424T12Z_MSC_GDPS_O3MixingRatio_LatLon0.15_PT162H.grib2 2026-04-24 16:51 1.9M
20260424T12Z_MSC_GDPS_O3_EAtm_LatLon0.15_PT162H.grib2 2026-04-24 16:51 2.4M
20260424T12Z_MSC_GDPS_PlanetaryBoundaryLayerHeight_Sfc_LatLon0.15_PT162H.grib2 2026-04-24 16:32 2.5M
20260424T12Z_MSC_GDPS_Precip-Accum12h_Sfc_LatLon0.15_PT162H.grib2 2026-04-24 16:32 4.0M
20260424T12Z_MSC_GDPS_Precip-Accum24h_Sfc_LatLon0.15_PT162H.grib2 2026-04-24 16:32 4.6M
20260424T12Z_MSC_GDPS_Precip-Accum3h_Sfc_LatLon0.15_PT162H.grib2 2026-04-24 16:32 3.5M
20260424T12Z_MSC_GDPS_Precip-Accum6h_Sfc_LatLon0.15_PT162H.grib2 2026-04-24 16:32 3.5M
20260424T12Z_MSC_GDPS_Precip-Accum_Sfc_LatLon0.15_PT162H.grib2 2026-04-24 16:32 5.3M
20260424T12Z_MSC_GDPS_PrecipRate_Sfc_LatLon0.15_PT162H.grib2 2026-04-24 16:32 3.0M
20260424T12Z_MSC_GDPS_PrecipType-Instant_Sfc_LatLon0.15_PT162H.grib2 2026-04-24 16:32 1.5M
20260424T12Z_MSC_GDPS_Pressure_MSL_LatLon0.15_PT162H.grib2 2026-04-24 16:32 718K
20260424T12Z_MSC_GDPS_Pressure_PVU-1.5_LatLon0.15_PT162H.grib2 2026-04-24 16:32 5.8M
20260424T12Z_MSC_GDPS_Pressure_PVU-1_LatLon0.15_PT162H.grib2 2026-04-24 16:32 6.0M
20260424T12Z_MSC_GDPS_Pressure_PVU-2_LatLon0.15_PT162H.grib2 2026-04-24 16:32 5.6M
20260424T12Z_MSC_GDPS_Pressure_Sfc_LatLon0.15_PT162H.grib2 2026-04-24 16:32 1.1M
20260424T12Z_MSC_GDPS_RadiativeTemp_Sfc_LatLon0.15_PT162H.grib2 2026-04-24 16:32 492K
20260424T12Z_MSC_GDPS_Rain-Accum12h_Sfc_LatLon0.15_PT162H.grib2 2026-04-24 16:32 2.6M
20260424T12Z_MSC_GDPS_Rain-Accum24h_Sfc_LatLon0.15_PT162H.grib2 2026-04-24 16:32 3.2M
20260424T12Z_MSC_GDPS_Rain-Accum3h_Sfc_LatLon0.15_PT162H.grib2 2026-04-24 16:32 1.6M
20260424T12Z_MSC_GDPS_Rain-Accum6h_Sfc_LatLon0.15_PT162H.grib2 2026-04-24 16:32 2.2M
20260424T12Z_MSC_GDPS_Rain-Accum_Sfc_LatLon0.15_PT162H.grib2 2026-04-24 16:32 4.1M
20260424T12Z_MSC_GDPS_RelativeHumidity_AGL-2m_LatLon0.15_PT162H.grib2 2026-04-24 16:32 1.0M
20260424T12Z_MSC_GDPS_RelativeHumidity_IsbL-0010_LatLon0.15_PT162H.grib2 2026-04-24 16:32 252K
20260424T12Z_MSC_GDPS_RelativeHumidity_IsbL-0020_LatLon0.15_PT162H.grib2 2026-04-24 16:32 214K
20260424T12Z_MSC_GDPS_RelativeHumidity_IsbL-0030_LatLon0.15_PT162H.grib2 2026-04-24 16:32 258K
20260424T12Z_MSC_GDPS_RelativeHumidity_IsbL-0050_LatLon0.15_PT162H.grib2 2026-04-24 16:32 412K
20260424T12Z_MSC_GDPS_RelativeHumidity_IsbL-0100_LatLon0.15_PT162H.grib2 2026-04-24 16:32 486K
20260424T12Z_MSC_GDPS_RelativeHumidity_IsbL-0150_LatLon0.15_PT162H.grib2 2026-04-24 16:32 644K
20260424T12Z_MSC_GDPS_RelativeHumidity_IsbL-0175_LatLon0.15_PT162H.grib2 2026-04-24 16:32 581K
20260424T12Z_MSC_GDPS_RelativeHumidity_IsbL-0200_LatLon0.15_PT162H.grib2 2026-04-24 16:32 693K
20260424T12Z_MSC_GDPS_RelativeHumidity_IsbL-0225_LatLon0.15_PT162H.grib2 2026-04-24 16:32 783K
20260424T12Z_MSC_GDPS_RelativeHumidity_IsbL-0250_LatLon0.15_PT162H.grib2 2026-04-24 16:32 863K
20260424T12Z_MSC_GDPS_RelativeHumidity_IsbL-0275_LatLon0.15_PT162H.grib2 2026-04-24 16:32 878K
20260424T12Z_MSC_GDPS_RelativeHumidity_IsbL-0300_LatLon0.15_PT162H.grib2 2026-04-24 16:32 913K
20260424T12Z_MSC_GDPS_RelativeHumidity_IsbL-0350_LatLon0.15_PT162H.grib2 2026-04-24 16:32 929K
20260424T12Z_MSC_GDPS_RelativeHumidity_IsbL-0400_LatLon0.15_PT162H.grib2 2026-04-24 16:32 952K
20260424T12Z_MSC_GDPS_RelativeHumidity_IsbL-0450_LatLon0.15_PT162H.grib2 2026-04-24 16:32 966K
20260424T12Z_MSC_GDPS_RelativeHumidity_IsbL-0500_LatLon0.15_PT162H.grib2 2026-04-24 16:32 1.0M
20260424T12Z_MSC_GDPS_RelativeHumidity_IsbL-0550_LatLon0.15_PT162H.grib2 2026-04-24 16:32 1.0M
20260424T12Z_MSC_GDPS_RelativeHumidity_IsbL-0600_LatLon0.15_PT162H.grib2 2026-04-24 16:32 1.0M
20260424T12Z_MSC_GDPS_RelativeHumidity_IsbL-0650_LatLon0.15_PT162H.grib2 2026-04-24 16:32 1.0M
20260424T12Z_MSC_GDPS_RelativeHumidity_IsbL-0700_LatLon0.15_PT162H.grib2 2026-04-24 16:32 1.1M
20260424T12Z_MSC_GDPS_RelativeHumidity_IsbL-0750_LatLon0.15_PT162H.grib2 2026-04-24 16:32 1.2M
20260424T12Z_MSC_GDPS_RelativeHumidity_IsbL-0800_LatLon0.15_PT162H.grib2 2026-04-24 16:32 1.2M
20260424T12Z_MSC_GDPS_RelativeHumidity_IsbL-0850_LatLon0.15_PT162H.grib2 2026-04-24 16:32 1.3M
20260424T12Z_MSC_GDPS_RelativeHumidity_IsbL-0875_LatLon0.15_PT162H.grib2 2026-04-24 16:32 1.3M
20260424T12Z_MSC_GDPS_RelativeHumidity_IsbL-0900_LatLon0.15_PT162H.grib2 2026-04-24 16:32 1.2M
20260424T12Z_MSC_GDPS_RelativeHumidity_IsbL-0925_LatLon0.15_PT162H.grib2 2026-04-24 16:32 1.2M
20260424T12Z_MSC_GDPS_RelativeHumidity_IsbL-0950_LatLon0.15_PT162H.grib2 2026-04-24 16:32 1.2M
20260424T12Z_MSC_GDPS_RelativeHumidity_IsbL-0970_LatLon0.15_PT162H.grib2 2026-04-24 16:32 1.2M
20260424T12Z_MSC_GDPS_RelativeHumidity_IsbL-0985_LatLon0.15_PT162H.grib2 2026-04-24 16:32 1.2M
20260424T12Z_MSC_GDPS_RelativeHumidity_IsbL-1000_LatLon0.15_PT162H.grib2 2026-04-24 16:32 1.1M
20260424T12Z_MSC_GDPS_RelativeHumidity_IsbL-1015_LatLon0.15_PT162H.grib2 2026-04-24 16:32 1.0M
20260424T12Z_MSC_GDPS_RelativeVorticity_IsbL-0200_LatLon0.15_PT162H.grib2 2026-04-24 16:32 1.5M
20260424T12Z_MSC_GDPS_RelativeVorticity_IsbL-0250_LatLon0.15_PT162H.grib2 2026-04-24 16:32 1.3M
20260424T12Z_MSC_GDPS_RelativeVorticity_IsbL-0500_LatLon0.15_PT162H.grib2 2026-04-24 16:32 1.4M
20260424T12Z_MSC_GDPS_RelativeVorticity_IsbL-0700_LatLon0.15_PT162H.grib2 2026-04-24 16:32 1.3M
20260424T12Z_MSC_GDPS_RelativeVorticity_IsbL-0850_LatLon0.15_PT162H.grib2 2026-04-24 16:32 1.6M
20260424T12Z_MSC_GDPS_Runoff-Accum_Sfc_LatLon0.15_PT162H.grib2 2026-04-24 16:32 116K
20260424T12Z_MSC_GDPS_SensibleHeatNetFlux_Sfc_LatLon0.15_PT162H.grib2 2026-04-24 16:32 651K
20260424T12Z_MSC_GDPS_ShowalterIndex_IsbL-0500_LatLon0.15_PT162H.grib2 2026-04-24 16:32 6.2M
20260424T12Z_MSC_GDPS_Snow-Accum12h_Sfc_LatLon0.15_PT162H.grib2 2026-04-24 16:32 1.6M
20260424T12Z_MSC_GDPS_Snow-Accum24h_Sfc_LatLon0.15_PT162H.grib2 2026-04-24 16:32 1.7M
20260424T12Z_MSC_GDPS_Snow-Accum3h_Sfc_LatLon0.15_PT162H.grib2 2026-04-24 16:32 1.0M
20260424T12Z_MSC_GDPS_Snow-Accum6h_Sfc_LatLon0.15_PT162H.grib2 2026-04-24 16:32 1.4M
20260424T12Z_MSC_GDPS_Snow-Accum_Sfc_LatLon0.15_PT162H.grib2 2026-04-24 16:32 2.2M
20260424T12Z_MSC_GDPS_SnowDensity_Sfc_LatLon0.15_PT162H.grib2 2026-04-24 16:32 274K
20260424T12Z_MSC_GDPS_SnowDepth_Sfc_LatLon0.15_PT162H.grib2 2026-04-24 16:32 1.8M
20260424T12Z_MSC_GDPS_SoilTemp_DBS-0to10cm_LatLon0.15_PT162H.grib2 2026-04-24 16:32 509K
20260424T12Z_MSC_GDPS_SoilTemp_Sfc_LatLon0.15_PT162H.grib2 2026-04-24 16:32 581K
20260424T12Z_MSC_GDPS_SoilVolumetricIceContent_Sfc_LatLon0.15_PT162H.grib2 2026-04-24 16:32 207K
20260424T12Z_MSC_GDPS_SoilVolumetricWaterContent_DBS-0to10cm_LatLon0.15_PT162H.grib2 2026-04-24 16:32 585K
20260424T12Z_MSC_GDPS_SoilVolumetricWaterContent_DBS-0to1cm_LatLon0.15_PT162H.grib2 2026-04-24 16:32 651K
20260424T12Z_MSC_GDPS_SpecificHumidity_AGL-120m_LatLon0.15_PT162H.grib2 2026-04-24 16:32 1.1M
20260424T12Z_MSC_GDPS_SpecificHumidity_AGL-2m_LatLon0.15_PT162H.grib2 2026-04-24 16:32 1.2M
20260424T12Z_MSC_GDPS_SpecificHumidity_AGL-40m_LatLon0.15_PT162H.grib2 2026-04-24 16:32 1.1M
20260424T12Z_MSC_GDPS_SpecificHumidity_AGL-80m_LatLon0.15_PT162H.grib2 2026-04-24 16:32 1.1M
20260424T12Z_MSC_GDPS_SpecificHumidity_IsbL-0001_LatLon0.15_PT162H.grib2 2026-04-24 16:32 1.1M
20260424T12Z_MSC_GDPS_SpecificHumidity_IsbL-0005_LatLon0.15_PT162H.grib2 2026-04-24 16:32 1.4M
20260424T12Z_MSC_GDPS_SpecificHumidity_IsbL-0010_LatLon0.15_PT162H.grib2 2026-04-24 16:32 1.2M
20260424T12Z_MSC_GDPS_SpecificHumidity_IsbL-0020_LatLon0.15_PT162H.grib2 2026-04-24 16:32 1.2M
20260424T12Z_MSC_GDPS_SpecificHumidity_IsbL-0030_LatLon0.15_PT162H.grib2 2026-04-24 16:32 1.5M
20260424T12Z_MSC_GDPS_SpecificHumidity_IsbL-0050_LatLon0.15_PT162H.grib2 2026-04-24 16:32 1.2M
20260424T12Z_MSC_GDPS_SpecificHumidity_IsbL-0100_LatLon0.15_PT162H.grib2 2026-04-24 16:32 1.3M
20260424T12Z_MSC_GDPS_SpecificHumidity_IsbL-0150_LatLon0.15_PT162H.grib2 2026-04-24 16:32 1.3M
20260424T12Z_MSC_GDPS_SpecificHumidity_IsbL-0175_LatLon0.15_PT162H.grib2 2026-04-24 16:32 1.2M
20260424T12Z_MSC_GDPS_SpecificHumidity_IsbL-0200_LatLon0.15_PT162H.grib2 2026-04-24 16:32 1.3M
20260424T12Z_MSC_GDPS_SpecificHumidity_IsbL-0225_LatLon0.15_PT162H.grib2 2026-04-24 16:32 1.3M
20260424T12Z_MSC_GDPS_SpecificHumidity_IsbL-0250_LatLon0.15_PT162H.grib2 2026-04-24 16:32 1.4M
20260424T12Z_MSC_GDPS_SpecificHumidity_IsbL-0275_LatLon0.15_PT162H.grib2 2026-04-24 16:32 1.3M
20260424T12Z_MSC_GDPS_SpecificHumidity_IsbL-0300_LatLon0.15_PT162H.grib2 2026-04-24 16:32 1.2M
20260424T12Z_MSC_GDPS_SpecificHumidity_IsbL-0350_LatLon0.15_PT162H.grib2 2026-04-24 16:32 1.2M
20260424T12Z_MSC_GDPS_SpecificHumidity_IsbL-0400_LatLon0.15_PT162H.grib2 2026-04-24 16:32 1.4M
20260424T12Z_MSC_GDPS_SpecificHumidity_IsbL-0450_LatLon0.15_PT162H.grib2 2026-04-24 16:32 1.5M
20260424T12Z_MSC_GDPS_SpecificHumidity_IsbL-0500_LatLon0.15_PT162H.grib2 2026-04-24 16:32 1.4M
20260424T12Z_MSC_GDPS_SpecificHumidity_IsbL-0550_LatLon0.15_PT162H.grib2 2026-04-24 16:32 1.6M
20260424T12Z_MSC_GDPS_SpecificHumidity_IsbL-0600_LatLon0.15_PT162H.grib2 2026-04-24 16:32 1.7M
20260424T12Z_MSC_GDPS_SpecificHumidity_IsbL-0650_LatLon0.15_PT162H.grib2 2026-04-24 16:32 1.5M
20260424T12Z_MSC_GDPS_SpecificHumidity_IsbL-0700_LatLon0.15_PT162H.grib2 2026-04-24 16:32 1.6M
20260424T12Z_MSC_GDPS_SpecificHumidity_IsbL-0750_LatLon0.15_PT162H.grib2 2026-04-24 16:32 1.7M
20260424T12Z_MSC_GDPS_SpecificHumidity_IsbL-0800_LatLon0.15_PT162H.grib2 2026-04-24 16:32 1.8M
20260424T12Z_MSC_GDPS_SpecificHumidity_IsbL-0850_LatLon0.15_PT162H.grib2 2026-04-24 16:32 1.9M
20260424T12Z_MSC_GDPS_SpecificHumidity_IsbL-0875_LatLon0.15_PT162H.grib2 2026-04-24 16:32 1.9M
20260424T12Z_MSC_GDPS_SpecificHumidity_IsbL-0900_LatLon0.15_PT162H.grib2 2026-04-24 16:32 1.9M
20260424T12Z_MSC_GDPS_SpecificHumidity_IsbL-0925_LatLon0.15_PT162H.grib2 2026-04-24 16:32 1.6M
20260424T12Z_MSC_GDPS_SpecificHumidity_IsbL-0950_LatLon0.15_PT162H.grib2 2026-04-24 16:32 1.6M
20260424T12Z_MSC_GDPS_SpecificHumidity_IsbL-0970_LatLon0.15_PT162H.grib2 2026-04-24 16:32 1.5M
20260424T12Z_MSC_GDPS_SpecificHumidity_IsbL-0985_LatLon0.15_PT162H.grib2 2026-04-24 16:32 1.5M
20260424T12Z_MSC_GDPS_SpecificHumidity_IsbL-1000_LatLon0.15_PT162H.grib2 2026-04-24 16:32 1.5M
20260424T12Z_MSC_GDPS_SpecificHumidity_IsbL-1015_LatLon0.15_PT162H.grib2 2026-04-24 16:32 1.4M
20260424T12Z_MSC_GDPS_SpecificHumidity_Sfc_LatLon0.15_PT162H.grib2 2026-04-24 16:32 666K
20260424T12Z_MSC_GDPS_Thickness_IsbL-0850to0700_LatLon0.15_PT162H.grib2 2026-04-24 16:32 462K
20260424T12Z_MSC_GDPS_Thickness_IsbL-1000to0500_LatLon0.15_PT162H.grib2 2026-04-24 16:32 370K
20260424T12Z_MSC_GDPS_Thickness_IsbL-1000to0850_LatLon0.15_PT162H.grib2 2026-04-24 16:32 485K
20260424T12Z_MSC_GDPS_TotalCloudCover_Sfc_LatLon0.15_PT162H.grib2 2026-04-24 16:32 824K
20260424T12Z_MSC_GDPS_TotalTotalsIndex_Sfc_LatLon0.15_PT162H.grib2 2026-04-24 16:32 6.2M
20260424T12Z_MSC_GDPS_UVIndex-ClearSky_Sfc_LatLon0.15_PT162H.grib2 2026-04-24 16:51 1.1M
20260424T12Z_MSC_GDPS_UVIndex_Sfc_LatLon0.15_PT162H.grib2 2026-04-24 16:51 1.5M
20260424T12Z_MSC_GDPS_UpwardLongwaveRadiationFlux_NTAtm_LatLon0.15_PT162H.grib2 2026-04-24 16:32 829K
20260424T12Z_MSC_GDPS_VerticalVelocity_IsbL-0200_LatLon0.15_PT162H.grib2 2026-04-24 16:32 1.1M
20260424T12Z_MSC_GDPS_VerticalVelocity_IsbL-0250_LatLon0.15_PT162H.grib2 2026-04-24 16:32 1.0M
20260424T12Z_MSC_GDPS_VerticalVelocity_IsbL-0500_LatLon0.15_PT162H.grib2 2026-04-24 16:32 1.3M
20260424T12Z_MSC_GDPS_VerticalVelocity_IsbL-0600_LatLon0.15_PT162H.grib2 2026-04-24 16:32 1.3M
20260424T12Z_MSC_GDPS_VerticalVelocity_IsbL-0700_LatLon0.15_PT162H.grib2 2026-04-24 16:32 1.1M
20260424T12Z_MSC_GDPS_VerticalVelocity_IsbL-0850_LatLon0.15_PT162H.grib2 2026-04-24 16:32 1.3M
20260424T12Z_MSC_GDPS_WindChill_Sfc_LatLon0.15_PT162H.grib2 2026-04-24 16:32 5.3M
20260424T12Z_MSC_GDPS_WindDir_AGL-10m_LatLon0.15_PT162H.grib2 2026-04-24 16:32 1.3M
20260424T12Z_MSC_GDPS_WindDir_AGL-120m_LatLon0.15_PT162H.grib2 2026-04-24 16:32 1.3M
20260424T12Z_MSC_GDPS_WindDir_AGL-40m_LatLon0.15_PT162H.grib2 2026-04-24 16:32 1.4M
20260424T12Z_MSC_GDPS_WindDir_AGL-80m_LatLon0.15_PT162H.grib2 2026-04-24 16:32 1.4M
20260424T12Z_MSC_GDPS_WindDir_IsbL-0001_LatLon0.15_PT162H.grib2 2026-04-24 16:32 675K
20260424T12Z_MSC_GDPS_WindDir_IsbL-0005_LatLon0.15_PT162H.grib2 2026-04-24 16:32 790K
20260424T12Z_MSC_GDPS_WindDir_IsbL-0010_LatLon0.15_PT162H.grib2 2026-04-24 16:32 841K
20260424T12Z_MSC_GDPS_WindDir_IsbL-0020_LatLon0.15_PT162H.grib2 2026-04-24 16:32 933K
20260424T12Z_MSC_GDPS_WindDir_IsbL-0030_LatLon0.15_PT162H.grib2 2026-04-24 16:32 937K
20260424T12Z_MSC_GDPS_WindDir_IsbL-0050_LatLon0.15_PT162H.grib2 2026-04-24 16:32 954K
20260424T12Z_MSC_GDPS_WindDir_IsbL-0100_LatLon0.15_PT162H.grib2 2026-04-24 16:32 1.0M
20260424T12Z_MSC_GDPS_WindDir_IsbL-0150_LatLon0.15_PT162H.grib2 2026-04-24 16:32 1.0M
20260424T12Z_MSC_GDPS_WindDir_IsbL-0175_LatLon0.15_PT162H.grib2 2026-04-24 16:32 1.0M
20260424T12Z_MSC_GDPS_WindDir_IsbL-0200_LatLon0.15_PT162H.grib2 2026-04-24 16:32 1.1M
20260424T12Z_MSC_GDPS_WindDir_IsbL-0225_LatLon0.15_PT162H.grib2 2026-04-24 16:32 1.1M
20260424T12Z_MSC_GDPS_WindDir_IsbL-0250_LatLon0.15_PT162H.grib2 2026-04-24 16:32 1.1M
20260424T12Z_MSC_GDPS_WindDir_IsbL-0275_LatLon0.15_PT162H.grib2 2026-04-24 16:32 1.2M
20260424T12Z_MSC_GDPS_WindDir_IsbL-0300_LatLon0.15_PT162H.grib2 2026-04-24 16:32 1.2M
20260424T12Z_MSC_GDPS_WindDir_IsbL-0350_LatLon0.15_PT162H.grib2 2026-04-24 16:32 1.2M
20260424T12Z_MSC_GDPS_WindDir_IsbL-0400_LatLon0.15_PT162H.grib2 2026-04-24 16:32 1.2M
20260424T12Z_MSC_GDPS_WindDir_IsbL-0450_LatLon0.15_PT162H.grib2 2026-04-24 16:32 1.3M
20260424T12Z_MSC_GDPS_WindDir_IsbL-0500_LatLon0.15_PT162H.grib2 2026-04-24 16:32 1.3M
20260424T12Z_MSC_GDPS_WindDir_IsbL-0550_LatLon0.15_PT162H.grib2 2026-04-24 16:32 1.3M
20260424T12Z_MSC_GDPS_WindDir_IsbL-0600_LatLon0.15_PT162H.grib2 2026-04-24 16:32 1.4M
20260424T12Z_MSC_GDPS_WindDir_IsbL-0650_LatLon0.15_PT162H.grib2 2026-04-24 16:32 1.5M
20260424T12Z_MSC_GDPS_WindDir_IsbL-0700_LatLon0.15_PT162H.grib2 2026-04-24 16:32 1.6M
20260424T12Z_MSC_GDPS_WindDir_IsbL-0750_LatLon0.15_PT162H.grib2 2026-04-24 16:32 1.7M
20260424T12Z_MSC_GDPS_WindDir_IsbL-0800_LatLon0.15_PT162H.grib2 2026-04-24 16:32 1.8M
20260424T12Z_MSC_GDPS_WindDir_IsbL-0850_LatLon0.15_PT162H.grib2 2026-04-24 16:32 1.9M
20260424T12Z_MSC_GDPS_WindDir_IsbL-0875_LatLon0.15_PT162H.grib2 2026-04-24 16:32 1.9M
20260424T12Z_MSC_GDPS_WindDir_IsbL-0900_LatLon0.15_PT162H.grib2 2026-04-24 16:32 2.0M
20260424T12Z_MSC_GDPS_WindDir_IsbL-0925_LatLon0.15_PT162H.grib2 2026-04-24 16:32 2.0M
20260424T12Z_MSC_GDPS_WindDir_IsbL-0950_LatLon0.15_PT162H.grib2 2026-04-24 16:32 2.0M
20260424T12Z_MSC_GDPS_WindDir_IsbL-0970_LatLon0.15_PT162H.grib2 2026-04-24 16:32 2.0M
20260424T12Z_MSC_GDPS_WindDir_IsbL-0985_LatLon0.15_PT162H.grib2 2026-04-24 16:32 2.0M
20260424T12Z_MSC_GDPS_WindDir_IsbL-1000_LatLon0.15_PT162H.grib2 2026-04-24 16:32 2.1M
20260424T12Z_MSC_GDPS_WindDir_IsbL-1015_LatLon0.15_PT162H.grib2 2026-04-24 16:32 2.0M
20260424T12Z_MSC_GDPS_WindGust-Max_AGL-10m_LatLon0.15_PT162H.grib2 2026-04-24 16:32 2.2M
20260424T12Z_MSC_GDPS_WindGust-Min_AGL-10m_LatLon0.15_PT162H.grib2 2026-04-24 16:32 2.2M
20260424T12Z_MSC_GDPS_WindGust_AGL-10m_LatLon0.15_PT162H.grib2 2026-04-24 16:32 2.1M
20260424T12Z_MSC_GDPS_WindSpeed_AGL-10m_LatLon0.15_PT162H.grib2 2026-04-24 16:32 1.1M
20260424T12Z_MSC_GDPS_WindSpeed_AGL-120m_LatLon0.15_PT162H.grib2 2026-04-24 16:32 1.2M
20260424T12Z_MSC_GDPS_WindSpeed_AGL-40m_LatLon0.15_PT162H.grib2 2026-04-24 16:32 1.2M
20260424T12Z_MSC_GDPS_WindSpeed_AGL-80m_LatLon0.15_PT162H.grib2 2026-04-24 16:32 1.2M
20260424T12Z_MSC_GDPS_WindSpeed_IsbL-0001_LatLon0.15_PT162H.grib2 2026-04-24 16:32 640K
20260424T12Z_MSC_GDPS_WindSpeed_IsbL-0005_LatLon0.15_PT162H.grib2 2026-04-24 16:32 604K
20260424T12Z_MSC_GDPS_WindSpeed_IsbL-0010_LatLon0.15_PT162H.grib2 2026-04-24 16:32 618K
20260424T12Z_MSC_GDPS_WindSpeed_IsbL-0020_LatLon0.15_PT162H.grib2 2026-04-24 16:32 847K
20260424T12Z_MSC_GDPS_WindSpeed_IsbL-0030_LatLon0.15_PT162H.grib2 2026-04-24 16:32 848K
20260424T12Z_MSC_GDPS_WindSpeed_IsbL-0050_LatLon0.15_PT162H.grib2 2026-04-24 16:32 895K
20260424T12Z_MSC_GDPS_WindSpeed_IsbL-0100_LatLon0.15_PT162H.grib2 2026-04-24 16:32 1.1M
20260424T12Z_MSC_GDPS_WindSpeed_IsbL-0150_LatLon0.15_PT162H.grib2 2026-04-24 16:32 1.0M
20260424T12Z_MSC_GDPS_WindSpeed_IsbL-0175_LatLon0.15_PT162H.grib2 2026-04-24 16:32 1.0M
20260424T12Z_MSC_GDPS_WindSpeed_IsbL-0200_LatLon0.15_PT162H.grib2 2026-04-24 16:32 1.1M
20260424T12Z_MSC_GDPS_WindSpeed_IsbL-0225_LatLon0.15_PT162H.grib2 2026-04-24 16:32 1.1M
20260424T12Z_MSC_GDPS_WindSpeed_IsbL-0250_LatLon0.15_PT162H.grib2 2026-04-24 16:32 1.1M
20260424T12Z_MSC_GDPS_WindSpeed_IsbL-0275_LatLon0.15_PT162H.grib2 2026-04-24 16:32 1.1M
20260424T12Z_MSC_GDPS_WindSpeed_IsbL-0300_LatLon0.15_PT162H.grib2 2026-04-24 16:32 1.1M
20260424T12Z_MSC_GDPS_WindSpeed_IsbL-0350_LatLon0.15_PT162H.grib2 2026-04-24 16:32 1.1M
20260424T12Z_MSC_GDPS_WindSpeed_IsbL-0400_LatLon0.15_PT162H.grib2 2026-04-24 16:32 1.1M
20260424T12Z_MSC_GDPS_WindSpeed_IsbL-0450_LatLon0.15_PT162H.grib2 2026-04-24 16:32 1.1M
20260424T12Z_MSC_GDPS_WindSpeed_IsbL-0500_LatLon0.15_PT162H.grib2 2026-04-24 16:32 1.1M
20260424T12Z_MSC_GDPS_WindSpeed_IsbL-0550_LatLon0.15_PT162H.grib2 2026-04-24 16:32 1.1M
20260424T12Z_MSC_GDPS_WindSpeed_IsbL-0600_LatLon0.15_PT162H.grib2 2026-04-24 16:32 1.4M
20260424T12Z_MSC_GDPS_WindSpeed_IsbL-0650_LatLon0.15_PT162H.grib2 2026-04-24 16:32 1.4M
20260424T12Z_MSC_GDPS_WindSpeed_IsbL-0700_LatLon0.15_PT162H.grib2 2026-04-24 16:32 1.5M
20260424T12Z_MSC_GDPS_WindSpeed_IsbL-0750_LatLon0.15_PT162H.grib2 2026-04-24 16:32 1.5M
20260424T12Z_MSC_GDPS_WindSpeed_IsbL-0800_LatLon0.15_PT162H.grib2 2026-04-24 16:32 1.6M
20260424T12Z_MSC_GDPS_WindSpeed_IsbL-0850_LatLon0.15_PT162H.grib2 2026-04-24 16:32 1.7M
20260424T12Z_MSC_GDPS_WindSpeed_IsbL-0875_LatLon0.15_PT162H.grib2 2026-04-24 16:32 1.8M
20260424T12Z_MSC_GDPS_WindSpeed_IsbL-0900_LatLon0.15_PT162H.grib2 2026-04-24 16:32 1.8M
20260424T12Z_MSC_GDPS_WindSpeed_IsbL-0925_LatLon0.15_PT162H.grib2 2026-04-24 16:32 1.8M
20260424T12Z_MSC_GDPS_WindSpeed_IsbL-0950_LatLon0.15_PT162H.grib2 2026-04-24 16:32 1.9M
20260424T12Z_MSC_GDPS_WindSpeed_IsbL-0970_LatLon0.15_PT162H.grib2 2026-04-24 16:32 1.9M
20260424T12Z_MSC_GDPS_WindSpeed_IsbL-0985_LatLon0.15_PT162H.grib2 2026-04-24 16:32 1.9M
20260424T12Z_MSC_GDPS_WindSpeed_IsbL-1000_LatLon0.15_PT162H.grib2 2026-04-24 16:32 1.9M
20260424T12Z_MSC_GDPS_WindSpeed_IsbL-1015_LatLon0.15_PT162H.grib2 2026-04-24 16:32 1.8M
20260424T12Z_MSC_GDPS_WindU_AGL-10m_LatLon0.15_PT162H.grib2 2026-04-24 16:32 1.3M
20260424T12Z_MSC_GDPS_WindU_AGL-120m_LatLon0.15_PT162H.grib2 2026-04-24 16:32 1.0M
20260424T12Z_MSC_GDPS_WindU_AGL-40m_LatLon0.15_PT162H.grib2 2026-04-24 16:32 966K
20260424T12Z_MSC_GDPS_WindU_AGL-80m_LatLon0.15_PT162H.grib2 2026-04-24 16:32 1.0M
20260424T12Z_MSC_GDPS_WindU_IsbL-0001_LatLon0.15_PT162H.grib2 2026-04-24 16:32 495K
20260424T12Z_MSC_GDPS_WindU_IsbL-0005_LatLon0.15_PT162H.grib2 2026-04-24 16:32 684K
20260424T12Z_MSC_GDPS_WindU_IsbL-0010_LatLon0.15_PT162H.grib2 2026-04-24 16:32 693K
20260424T12Z_MSC_GDPS_WindU_IsbL-0020_LatLon0.15_PT162H.grib2 2026-04-24 16:32 724K
20260424T12Z_MSC_GDPS_WindU_IsbL-0030_LatLon0.15_PT162H.grib2 2026-04-24 16:32 726K
20260424T12Z_MSC_GDPS_WindU_IsbL-0050_LatLon0.15_PT162H.grib2 2026-04-24 16:32 688K
20260424T12Z_MSC_GDPS_WindU_IsbL-0100_LatLon0.15_PT162H.grib2 2026-04-24 16:32 913K
20260424T12Z_MSC_GDPS_WindU_IsbL-0150_LatLon0.15_PT162H.grib2 2026-04-24 16:32 1.0M
20260424T12Z_MSC_GDPS_WindU_IsbL-0175_LatLon0.15_PT162H.grib2 2026-04-24 16:32 1.0M
20260424T12Z_MSC_GDPS_WindU_IsbL-0200_LatLon0.15_PT162H.grib2 2026-04-24 16:32 1.1M
20260424T12Z_MSC_GDPS_WindU_IsbL-0225_LatLon0.15_PT162H.grib2 2026-04-24 16:32 856K
20260424T12Z_MSC_GDPS_WindU_IsbL-0250_LatLon0.15_PT162H.grib2 2026-04-24 16:32 855K
20260424T12Z_MSC_GDPS_WindU_IsbL-0275_LatLon0.15_PT162H.grib2 2026-04-24 16:32 879K
20260424T12Z_MSC_GDPS_WindU_IsbL-0300_LatLon0.15_PT162H.grib2 2026-04-24 16:32 866K
20260424T12Z_MSC_GDPS_WindU_IsbL-0350_LatLon0.15_PT162H.grib2 2026-04-24 16:32 879K
20260424T12Z_MSC_GDPS_WindU_IsbL-0400_LatLon0.15_PT162H.grib2 2026-04-24 16:32 881K
20260424T12Z_MSC_GDPS_WindU_IsbL-0450_LatLon0.15_PT162H.grib2 2026-04-24 16:32 1.1M
20260424T12Z_MSC_GDPS_WindU_IsbL-0500_LatLon0.15_PT162H.grib2 2026-04-24 16:32 1.1M
20260424T12Z_MSC_GDPS_WindU_IsbL-0550_LatLon0.15_PT162H.grib2 2026-04-24 16:32 1.1M
20260424T12Z_MSC_GDPS_WindU_IsbL-0600_LatLon0.15_PT162H.grib2 2026-04-24 16:32 1.1M
20260424T12Z_MSC_GDPS_WindU_IsbL-0650_LatLon0.15_PT162H.grib2 2026-04-24 16:32 1.2M
20260424T12Z_MSC_GDPS_WindU_IsbL-0700_LatLon0.15_PT162H.grib2 2026-04-24 16:32 1.2M
20260424T12Z_MSC_GDPS_WindU_IsbL-0750_LatLon0.15_PT162H.grib2 2026-04-24 16:32 1.3M
20260424T12Z_MSC_GDPS_WindU_IsbL-0800_LatLon0.15_PT162H.grib2 2026-04-24 16:32 1.3M
20260424T12Z_MSC_GDPS_WindU_IsbL-0850_LatLon0.15_PT162H.grib2 2026-04-24 16:32 1.4M
20260424T12Z_MSC_GDPS_WindU_IsbL-0875_LatLon0.15_PT162H.grib2 2026-04-24 16:32 1.4M
20260424T12Z_MSC_GDPS_WindU_IsbL-0900_LatLon0.15_PT162H.grib2 2026-04-24 16:32 1.5M
20260424T12Z_MSC_GDPS_WindU_IsbL-0925_LatLon0.15_PT162H.grib2 2026-04-24 16:32 1.5M
20260424T12Z_MSC_GDPS_WindU_IsbL-0950_LatLon0.15_PT162H.grib2 2026-04-24 16:32 1.4M
20260424T12Z_MSC_GDPS_WindU_IsbL-0970_LatLon0.15_PT162H.grib2 2026-04-24 16:32 1.4M
20260424T12Z_MSC_GDPS_WindU_IsbL-0985_LatLon0.15_PT162H.grib2 2026-04-24 16:32 1.4M
20260424T12Z_MSC_GDPS_WindU_IsbL-1000_LatLon0.15_PT162H.grib2 2026-04-24 16:32 1.4M
20260424T12Z_MSC_GDPS_WindU_IsbL-1015_LatLon0.15_PT162H.grib2 2026-04-24 16:32 1.3M
20260424T12Z_MSC_GDPS_WindV_AGL-10m_LatLon0.15_PT162H.grib2 2026-04-24 16:32 1.6M
20260424T12Z_MSC_GDPS_WindV_AGL-120m_LatLon0.15_PT162H.grib2 2026-04-24 16:32 968K
20260424T12Z_MSC_GDPS_WindV_AGL-40m_LatLon0.15_PT162H.grib2 2026-04-24 16:32 961K
20260424T12Z_MSC_GDPS_WindV_AGL-80m_LatLon0.15_PT162H.grib2 2026-04-24 16:32 967K
20260424T12Z_MSC_GDPS_WindV_IsbL-0001_LatLon0.15_PT162H.grib2 2026-04-24 16:32 773K
20260424T12Z_MSC_GDPS_WindV_IsbL-0005_LatLon0.15_PT162H.grib2 2026-04-24 16:32 757K
20260424T12Z_MSC_GDPS_WindV_IsbL-0010_LatLon0.15_PT162H.grib2 2026-04-24 16:32 1.0M
20260424T12Z_MSC_GDPS_WindV_IsbL-0020_LatLon0.15_PT162H.grib2 2026-04-24 16:32 842K
20260424T12Z_MSC_GDPS_WindV_IsbL-0030_LatLon0.15_PT162H.grib2 2026-04-24 16:32 842K
20260424T12Z_MSC_GDPS_WindV_IsbL-0050_LatLon0.15_PT162H.grib2 2026-04-24 16:32 895K
20260424T12Z_MSC_GDPS_WindV_IsbL-0100_LatLon0.15_PT162H.grib2 2026-04-24 16:32 1.0M
20260424T12Z_MSC_GDPS_WindV_IsbL-0150_LatLon0.15_PT162H.grib2 2026-04-24 16:32 1.0M
20260424T12Z_MSC_GDPS_WindV_IsbL-0175_LatLon0.15_PT162H.grib2 2026-04-24 16:32 1.0M
20260424T12Z_MSC_GDPS_WindV_IsbL-0200_LatLon0.15_PT162H.grib2 2026-04-24 16:32 846K
20260424T12Z_MSC_GDPS_WindV_IsbL-0225_LatLon0.15_PT162H.grib2 2026-04-24 16:32 854K
20260424T12Z_MSC_GDPS_WindV_IsbL-0250_LatLon0.15_PT162H.grib2 2026-04-24 16:32 850K
20260424T12Z_MSC_GDPS_WindV_IsbL-0275_LatLon0.15_PT162H.grib2 2026-04-24 16:32 873K
20260424T12Z_MSC_GDPS_WindV_IsbL-0300_LatLon0.15_PT162H.grib2 2026-04-24 16:32 859K
20260424T12Z_MSC_GDPS_WindV_IsbL-0350_LatLon0.15_PT162H.grib2 2026-04-24 16:32 871K
20260424T12Z_MSC_GDPS_WindV_IsbL-0400_LatLon0.15_PT162H.grib2 2026-04-24 16:32 872K
20260424T12Z_MSC_GDPS_WindV_IsbL-0450_LatLon0.15_PT162H.grib2 2026-04-24 16:32 1.1M
20260424T12Z_MSC_GDPS_WindV_IsbL-0500_LatLon0.15_PT162H.grib2 2026-04-24 16:32 1.1M
20260424T12Z_MSC_GDPS_WindV_IsbL-0550_LatLon0.15_PT162H.grib2 2026-04-24 16:32 1.1M
20260424T12Z_MSC_GDPS_WindV_IsbL-0600_LatLon0.15_PT162H.grib2 2026-04-24 16:32 1.1M
20260424T12Z_MSC_GDPS_WindV_IsbL-0650_LatLon0.15_PT162H.grib2 2026-04-24 16:32 1.2M
20260424T12Z_MSC_GDPS_WindV_IsbL-0700_LatLon0.15_PT162H.grib2 2026-04-24 16:32 1.2M
20260424T12Z_MSC_GDPS_WindV_IsbL-0750_LatLon0.15_PT162H.grib2 2026-04-24 16:32 1.2M
20260424T12Z_MSC_GDPS_WindV_IsbL-0800_LatLon0.15_PT162H.grib2 2026-04-24 16:32 1.3M
20260424T12Z_MSC_GDPS_WindV_IsbL-0850_LatLon0.15_PT162H.grib2 2026-04-24 16:32 1.4M
20260424T12Z_MSC_GDPS_WindV_IsbL-0875_LatLon0.15_PT162H.grib2 2026-04-24 16:32 1.4M
20260424T12Z_MSC_GDPS_WindV_IsbL-0900_LatLon0.15_PT162H.grib2 2026-04-24 16:32 1.4M
20260424T12Z_MSC_GDPS_WindV_IsbL-0925_LatLon0.15_PT162H.grib2 2026-04-24 16:32 1.4M
20260424T12Z_MSC_GDPS_WindV_IsbL-0950_LatLon0.15_PT162H.grib2 2026-04-24 16:32 1.4M
20260424T12Z_MSC_GDPS_WindV_IsbL-0970_LatLon0.15_PT162H.grib2 2026-04-24 16:32 1.4M
20260424T12Z_MSC_GDPS_WindV_IsbL-0985_LatLon0.15_PT162H.grib2 2026-04-24 16:32 1.4M
20260424T12Z_MSC_GDPS_WindV_IsbL-1000_LatLon0.15_PT162H.grib2 2026-04-24 16:32 1.4M
20260424T12Z_MSC_GDPS_WindV_IsbL-1015_LatLon0.15_PT162H.grib2 2026-04-24 16:32 1.6M